Regional Weather Roundup
Issued by NWS

Home | Current Version | Previous Version | Text Only | Print | Product List | Glossary Off
Versions: 1 2 3 4 5 6 7 8 9 10 11 12 13 14 15 16 17 18 19 20 21 22 23 24 25 26 27 28 29 30 31 32 33 34 35 36 37 38 39 40 41 42 43 44 45 46 47 48 49 50

000
ASUS45 KBOU 052210
RWRCO

WEATHER ROUNDUP FOR COLORADO
NATIONAL WEATHER SERVICE DENVER/BOULDER CO
400 PM MDT SUN JUL 05 2015

NOTE: "FAIR" INDICATES FEW OR NO CLOUDS BELOW 12000 FEET WITH NO
SIGNIFICANT WEATHER AND/OR OBSTRUCTIONS TO VISIBILITY.

COZ001>005-013-030-031-052300-
...NORTHWEST COLORADO...

CITY           SKY/WX    TMP DP  RH WIND       PRES   REMARKS
CRAIG          CLOUDY    73  55  53 NE5       30.15F
HAYDEN         CLOUDY    64  55  72 S3        30.18S
MEEKER         CLOUDY    67  57  70 SE7       30.16F
MOUNT WERNER   NOT AVBL
STEAMBOAT SPGS CLOUDY    63  57  79 SW8       30.20S
WALDEN         CLOUDY    63  52  67 NW14      30.23S
$$

COZ006>008-011-052300-
...WEST CENTRAL VALLEYS...

CITY           SKY/WX    TMP DP  RH WIND       PRES   REMARKS
GRAND JUNCTION CLOUDY    80  59  48 NW8       30.05F
MONTROSE       LGT RAIN  67  61  81 SE9       30.16S
EAGLE          PTSUNNY   70  55  60 SW15      30.18S
RIFLE          PTSUNNY   76  58  53 NE6       30.10S
DELTA          CLOUDY    76  60  58 S5        30.10F
NUCLA          LGT RAIN  64  63  94 S6        30.22R
$$

COZ017>023-064>068-052300-
...SOUTHWEST COLORADO...

CITY           SKY/WX    TMP DP  RH WIND       PRES   REMARKS
DURANGO        SUNNY     80  51  36 W12G20    30.15F
CORTEZ         PTSUNNY   75  51  43 N16G30    30.15R
PAGOSA SPRINGS PTSUNNY   76  46  35 SW14G20   30.22F
TELLURIDE      LGT RAIN  55  51  85 W17       30.42R
WOLF CREEK PAS NOT AVBL
$$

COZ009-010-012-014-032>034-037-058>063-052300-
...CENTRAL COLORADO...

CITY           SKY/WX    TMP DP  RH WIND       PRES   REMARKS
ASPEN          CLOUDY    64  54  69 NW12G18   30.24R
BUENA VISTA    CLOUDY    73  46  38 W10       30.19F
COPPER MTN     LGT RAIN  54  46  76 SE13      30.54S
BERTHOUD PASS  HAZE      43  32  65 NW12      30.58R THUNDER VSB<1/4
COTTONWOOD PAS NOT AVBL
GUNNISON       PTSUNNY   70  50  49 NW5       30.25S
KREMMLING      LGT RAIN  64  54  68 CALM      30.22S
LEADVILLE      CLOUDY    60  49  66 NE9       30.36F
MONARCH PASS   RAIN      50  46  87 SW20      30.64S VSB<1/4
SALIDA         CLOUDY    72  53  50 S10       30.24F
SUNLIGHT       CLOUDY    55  55 100 CALM      30.48R
WILKERSON PASS CLOUDY    63  41  45 SW7       30.48S
$$

COZ069>075-052300-
...SAN LUIS VALLEY/SANGRE DE CRISTO MOUNTAINS...

CITY           SKY/WX    TMP DP  RH WIND       PRES   REMARKS
ALAMOSA        MOSUNNY   81  45  28 SE8       30.15F
LA VETA PASS   PTSUNNY   64  41  42 MISG      30.39S
SAGUACHE       CLOUDY    61  55  82 CALM      30.25S
$$

COZ035-036-038>040-052300-
...NORTHERN COLORADO FRONT RANGE...

CITY           SKY/WX    TMP DP  RH WIND       PRES   REMARKS
DENVER INTL AP CLOUDY    87  49  26 NW15      29.95R
DMNS CITY PARK   N/A     78  53  40 N5G12     29.96R
AURORA         PTSUNNY   83  53  36 W10       29.98R
FRONT RANGE AP PTSUNNY   91  54  27 MISG      29.95F
ERIE MUNI ARPT PTSUNNY   81  52  36 W6        29.94R
BOULDER MUN AP PTSUNNY   82  46  28 SW6       29.96R
CENTENNIAL     CLOUDY    81  53  37 W12       30.00R
BROOMFIELD     PTSUNNY   75  57  53 W8        29.99F
FORT COLLINS   CLOUDY    72  59  64 N16G24    29.99R
LONGMONT       CLOUDY    87  48  26 W3        29.96R
$$

COZ041-046-047-076>085-087-088-052300-
...PIKES PEAK/PALMER DIVIDE AND SOUTHERN FOOTHILLS...

CITY           SKY/WX    TMP DP  RH WIND       PRES   REMARKS
COLO. SPRINGS  PTSUNNY   86  49  27 SE6       30.02S
A. F. ACADEMY  PTSUNNY   79  48  34 W15G23    30.04R
ELLICOTT       PTSUNNY    1  32 100 SW9       30.00S WCI -14
FALCON         PTSUNNY   82  48  29 CALM      30.08S
FORT CARSON    CLOUDY    86  52  30 N3        29.98F
LIMON          CLOUDY    86  51  29 S10       29.94F
MONUMENT HILL  PTSUNNY   81  50  34 CALM      30.09S
TRINIDAD       CLOUDY    81  58  45 S15       30.01S
$$

COZ042>045-048>051-090-091-052300-
...NORTHEAST COLORADO...

CITY           SKY/WX    TMP DP  RH WIND       PRES   REMARKS
GREELEY ARPT   CLOUDY    79  57  47 N30G37    29.94R
AKRON          PTSUNNY   91  51  25 S12       29.87S
BURLINGTON     MOSUNNY   97  45  16 S17       29.85F
WRAY           MOSUNNY  103  43  13 S12       29.78F
STERLING       PTSUNNY   97  52  21 W3          N/A
HOLYOKE        MOSUNNY   95  61  31 S3        29.80S
FORT MORGAN    PTSUNNY   91  51  25 CALM      29.88S
$$

COZ086-089-092>099-052300-
...SOUTHEAST COLORADO...

CITY           SKY/WX    TMP DP  RH WIND       PRES   REMARKS
PUEBLO         PTSUNNY   95  47  19 SW6       29.87F
LA JUNTA       CLOUDY    98  50  19 SW8       29.84F
LAMAR          PTSUNNY   99  55  23 S17G26    29.79S
SPRINGFIELD      N/A     91  55  29 S21G26    29.90F
$$


USA.gov is the U.S. government's official web portal to all federal, state and local government web resources and services.